Time,TemperatureF,DewpointF,PressureIn,WindDirection,WindDirectionDegrees,WindSpeedMPH,WindSpeedGustMPH,Humidity,HourlyPrecipIn,Conditions,Clouds,dailyrainin,SoftwareType,DateUTC
2013-04-09 00:03:00,40.0,38.0,29.95,NE,44,0.0,0.0,92,0.00,,,0.13,,2013-04-09 04:03:00,
2013-04-09 00:13:00,40.0,38.0,29.95,NE,44,0.0,0.0,92,0.00,,,0.13,,2013-04-09 04:13:00,
2013-04-09 00:23:00,40.0,38.0,29.96,NE,44,0.0,0.0,92,0.00,,,0.13,,2013-04-09 04:23:00,
2013-04-09 00:32:00,40.0,38.0,29.96,NE,44,0.0,0.0,93,0.00,,,0.13,,2013-04-09 04:32:00,
2013-04-09 00:42:00,40.0,38.0,29.96,NE,44,0.0,0.0,93,0.00,,,0.13,,2013-04-09 04:42:00,
2013-04-09 00:53:00,40.0,38.0,29.96,NE,44,0.0,0.0,93,0.00,,,0.13,,2013-04-09 04:53:00,
2013-04-09 01:02:00,39.0,37.0,29.96,NE,44,0.0,0.0,94,0.00,,,0.13,,2013-04-09 05:02:00,
2013-04-09 01:12:00,39.0,37.0,29.97,NE,44,0.0,0.0,94,0.00,,,0.13,,2013-04-09 05:12:00,
2013-04-09 01:22:00,39.0,37.0,29.97,NE,44,0.0,0.0,94,0.00,,,0.13,,2013-04-09 05:22:00,
2013-04-09 01:32:00,39.0,37.0,29.97,NE,44,0.0,0.0,94,0.00,,,0.13,,2013-04-09 05:32:00,
2013-04-09 01:42:00,39.0,38.0,29.98,NE,44,0.0,0.0,95,0.00,,,0.13,,2013-04-09 05:42:00,
2013-04-09 01:52:00,39.0,38.0,29.98,NE,44,0.0,0.0,95,0.00,,,0.13,,2013-04-09 05:52:00,
2013-04-09 02:02:00,39.0,38.0,29.98,NE,44,0.0,0.0,95,0.00,,,0.13,,2013-04-09 06:02:00,
2013-04-09 02:12:00,39.0,38.0,29.98,NE,44,0.0,0.0,96,0.00,,,0.13,,2013-04-09 06:12:00,
2013-04-09 02:22:00,39.0,38.0,29.98,NE,44,0.0,0.0,96,0.00,,,0.13,,2013-04-09 06:22:00,
2013-04-09 02:32:00,40.0,39.0,29.97,NE,42,0.0,4.0,96,0.00,,,0.13,,2013-04-09 06:32:00,
2013-04-09 02:42:00,40.0,39.0,29.97,NE,42,0.0,4.0,96,0.00,,,0.13,,2013-04-09 06:42:00,
2013-04-09 02:52:00,40.0,39.0,29.98,NE,42,0.0,1.0,96,0.00,,,0.13,,2013-04-09 06:52:00,
2013-04-09 03:02:00,40.0,39.0,29.98,NE,42,0.0,0.0,96,0.00,,,0.13,,2013-04-09 07:02:00,
2013-04-09 03:12:00,40.0,39.0,29.98,NE,42,0.0,0.0,96,0.00,,,0.13,,2013-04-09 07:12:00,
2013-04-09 03:22:00,40.0,39.0,29.98,NE,42,0.0,0.0,96,0.00,,,0.13,,2013-04-09 07:22:00,
2013-04-09 03:32:00,41.0,40.0,29.96,NE,42,0.0,2.0,96,0.00,,,0.13,,2013-04-09 07:32:00,
2013-04-09 03:42:00,41.0,40.0,29.96,NE,42,0.0,2.0,96,0.00,,,0.13,,2013-04-09 07:42:00,
2013-04-09 03:52:00,41.0,40.0,29.97,NE,42,0.0,0.0,96,0.00,,,0.13,,2013-04-09 07:52:00,
2013-04-09 04:02:00,42.0,41.0,29.96,NE,42,0.0,2.0,96,0.00,,,0.13,,2013-04-09 08:02:00,
2013-04-09 04:12:00,42.0,41.0,29.96,NE,42,0.0,2.0,96,0.00,,,0.13,,2013-04-09 08:12:00,
2013-04-09 04:22:00,42.0,41.0,29.96,NE,42,0.0,0.0,95,0.00,,,0.13,,2013-04-09 08:22:00,
2013-04-09 04:32:00,43.0,42.0,29.96,NE,42,0.0,1.0,95,0.00,,,0.13,,2013-04-09 08:32:00,
2013-04-09 04:42:00,43.0,42.0,29.96,NE,42,0.0,1.0,95,0.00,,,0.13,,2013-04-09 08:42:00,
2013-04-09 04:52:00,44.0,42.0,29.96,ENE,73,0.0,4.0,93,0.00,,,0.13,,2013-04-09 08:52:00,
2013-04-09 05:02:00,44.0,42.0,29.96,ENE,73,0.0,1.0,92,0.00,,,0.13,,2013-04-09 09:02:00,
2013-04-09 05:12:00,45.0,42.0,29.96,ENE,73,0.0,2.0,90,0.00,,,0.13,,2013-04-09 09:12:00,
2013-04-09 05:22:00,45.0,42.0,29.96,ENE,73,0.0,2.0,90,0.00,,,0.13,,2013-04-09 09:22:00,
2013-04-09 05:33:00,45.0,42.0,29.97,ENE,75,0.0,2.0,88,0.00,,,0.13,,2013-04-09 09:33:00,
2013-04-09 05:43:00,45.0,42.0,29.97,ENE,75,0.0,2.0,88,0.00,,,0.13,,2013-04-09 09:43:00,
2013-04-09 05:53:00,45.0,42.0,29.96,ENE,75,0.0,2.0,88,0.00,,,0.13,,2013-04-09 09:53:00,
2013-04-09 06:03:00,45.0,42.0,29.95,NNE,28,2.0,7.0,88,0.00,,,0.13,,2013-04-09 10:03:00,
2013-04-09 06:12:00,45.0,42.0,29.95,NNE,28,2.0,7.0,88,0.00,,,0.13,,2013-04-09 10:12:00,
2013-04-09 06:23:00,45.0,42.0,29.95,ESE,112,0.0,2.0,88,0.00,,,0.13,,2013-04-09 10:23:00,
2013-04-09 06:33:00,45.0,42.0,29.96,SE,133,1.0,4.0,88,0.00,,,0.13,,2013-04-09 10:33:00,
2013-04-09 06:42:00,45.0,42.0,29.96,SE,133,1.0,4.0,88,0.00,,,0.13,,2013-04-09 10:42:00,
2013-04-09 06:53:00,45.0,41.0,29.96,East,79,0.0,4.0,87,0.00,,,0.13,,2013-04-09 10:53:00,
2013-04-09 07:02:00,45.0,41.0,29.96,East,92,0.0,2.0,87,0.00,,,0.13,,2013-04-09 11:02:00,
2013-04-09 07:12:00,45.0,41.0,29.96,East,92,0.0,2.0,87,0.00,,,0.13,,2013-04-09 11:12:00,
2013-04-09 07:22:00,45.0,41.0,29.96,NNE,30,0.0,2.0,86,0.00,,,0.13,,2013-04-09 11:22:00,
2013-04-09 07:32:00,45.0,41.0,29.96,NE,37,0.0,2.0,87,0.00,,,0.13,,2013-04-09 11:32:00,
2013-04-09 07:42:00,45.0,41.0,29.96,NE,37,0.0,2.0,87,0.00,,,0.13,,2013-04-09 11:42:00,
2013-04-09 07:52:00,45.0,41.0,29.95,ESE,117,1.0,6.0,87,0.00,,,0.13,,2013-04-09 11:52:00,
2013-04-09 08:02:00,45.0,41.0,29.94,South,175,0.0,6.0,86,0.00,,,0.13,,2013-04-09 12:02:00,
2013-04-09 08:12:00,45.0,41.0,29.94,South,175,0.0,6.0,86,0.00,,,0.13,,2013-04-09 12:12:00,
2013-04-09 08:22:00,46.0,42.0,29.95,East,96,1.0,4.0,85,0.00,,,0.12,,2013-04-09 12:22:00,
2013-04-09 08:32:00,47.0,42.0,29.96,ESE,112,1.0,6.0,84,0.00,,,0.12,,2013-04-09 12:32:00,
2013-04-09 08:42:00,47.0,42.0,29.96,ESE,112,1.0,6.0,84,0.00,,,0.12,,2013-04-09 12:42:00,
2013-04-09 08:53:00,48.0,42.0,29.95,SE,128,1.0,7.0,81,0.00,,,0.12,,2013-04-09 12:53:00,
2013-04-09 09:02:00,49.0,43.0,29.95,ESE,119,5.0,10.0,79,0.00,,,0.12,,2013-04-09 13:02:00,
2013-04-09 09:12:00,49.0,43.0,29.95,ESE,119,5.0,10.0,79,0.00,,,0.12,,2013-04-09 13:12:00,
2013-04-09 09:23:00,50.0,43.0,29.93,ESE,110,2.0,10.0,76,0.00,,,0.05,,2013-04-09 13:23:00,
2013-04-09 09:32:00,51.0,43.0,29.93,ESE,123,1.0,10.0,73,0.00,,,0.05,,2013-04-09 13:32:00,
2013-04-09 09:42:00,51.0,43.0,29.93,ESE,123,1.0,10.0,73,0.00,,,0.05,,2013-04-09 13:42:00,
2013-04-09 09:53:00,52.0,43.0,29.92,ESE,121,4.0,10.0,72,0.00,,,0.05,,2013-04-09 13:53:00,
2013-04-09 10:03:00,52.0,43.0,29.93,SSE,150,2.0,8.0,72,0.00,,,0.05,,2013-04-09 14:03:00,
2013-04-09 10:12:00,52.0,43.0,29.93,SSE,150,2.0,8.0,72,0.00,,,0.05,,2013-04-09 14:12:00,
2013-04-09 10:22:00,53.0,44.0,29.92,ESE,117,5.0,8.0,72,0.00,,,0.02,,2013-04-09 14:22:00,
2013-04-09 10:32:00,54.0,44.0,29.91,SE,144,1.0,8.0,70,0.00,,,0.02,,2013-04-09 14:32:00,
2013-04-09 10:42:00,54.0,44.0,29.91,SE,144,1.0,8.0,70,0.00,,,0.02,,2013-04-09 14:42:00,
2013-04-09 10:52:00,54.0,44.0,29.91,ESE,102,1.0,7.0,69,0.00,,,0.02,,2013-04-09 14:52:00,
2013-04-09 11:02:00,56.0,45.0,29.91,South,186,3.0,9.0,67,0.00,,,0.02,,2013-04-09 15:02:00,
2013-04-09 11:12:00,56.0,45.0,29.91,South,186,3.0,9.0,67,0.00,,,0.02,,2013-04-09 15:12:00,
2013-04-09 11:22:00,57.0,46.0,29.90,SSE,161,4.0,10.0,66,0.00,,,0.01,,2013-04-09 15:22:00,
2013-04-09 11:33:00,57.0,46.0,29.91,SSW,198,1.0,8.0,66,0.00,,,0.01,,2013-04-09 15:33:00,
2013-04-09 11:43:00,57.0,46.0,29.91,SSW,198,1.0,8.0,66,0.00,,,0.01,,2013-04-09 15:43:00,
2013-04-09 11:53:00,57.0,47.0,29.91,SSE,162,0.0,7.0,69,0.00,,,0.01,,2013-04-09 15:53:00,
2013-04-09 12:03:00,57.0,48.0,29.90,SSE,158,1.0,8.0,71,0.00,,,0.01,,2013-04-09 16:03:00,
2013-04-09 12:13:00,57.0,48.0,29.90,SSE,158,1.0,8.0,71,0.00,,,0.01,,2013-04-09 16:13:00,
2013-04-09 12:23:00,58.0,49.0,29.89,South,176,1.0,9.0,72,0.00,,,0.01,,2013-04-09 16:23:00,
2013-04-09 12:33:00,58.0,49.0,29.88,SE,141,0.0,7.0,72,0.00,,,0.01,,2013-04-09 16:33:00,
2013-04-09 12:42:00,58.0,49.0,29.88,SE,141,0.0,7.0,72,0.00,,,0.01,,2013-04-09 16:42:00,
2013-04-09 12:53:00,59.0,49.0,29.86,SSE,168,2.0,8.0,70,0.00,,,0.01,,2013-04-09 16:53:00,
2013-04-09 13:02:00,60.0,50.0,29.85,SSE,148,3.0,9.0,69,0.00,,,0.01,,2013-04-09 17:02:00,
2013-04-09 13:12:00,60.0,50.0,29.85,SSE,148,3.0,9.0,69,0.00,,,0.01,,2013-04-09 17:12:00,
2013-04-09 13:23:00,62.0,51.0,29.85,South,186,3.0,10.0,66,0.00,,,0.01,,2013-04-09 17:23:00,
2013-04-09 13:32:00,64.0,52.0,29.84,SE,143,3.0,9.0,66,0.00,,,0.01,,2013-04-09 17:32:00,
2013-04-09 13:42:00,64.0,52.0,29.84,SE,143,3.0,9.0,66,0.00,,,0.01,,2013-04-09 17:42:00,
2013-04-09 13:54:00,65.0,53.0,29.84,SW,217,1.0,4.0,65,0.00,,,0.01,,2013-04-09 17:54:00,
2013-04-09 14:02:00,66.0,53.0,29.83,South,172,1.0,6.0,64,0.00,,,0.01,,2013-04-09 18:02:00,
2013-04-09 14:12:00,66.0,53.0,29.83,South,172,1.0,6.0,64,0.00,,,0.01,,2013-04-09 18:12:00,
2013-04-09 14:22:00,68.0,55.0,29.82,SSE,165,4.0,8.0,63,0.00,,,0.01,,2013-04-09 18:22:00,
2013-04-09 14:32:00,70.0,57.0,29.81,SSW,202,3.0,8.0,63,0.00,,,0.01,,2013-04-09 18:32:00,
2013-04-09 14:43:00,70.0,57.0,29.81,SSW,202,3.0,8.0,63,0.00,,,0.01,,2013-04-09 18:43:00,
2013-04-09 14:53:00,72.0,58.0,29.80,SW,226,3.0,11.0,61,0.00,,,0.01,,2013-04-09 18:53:00,
2013-04-09 15:02:00,72.0,58.0,29.80,SW,226,3.0,11.0,61,0.00,,,0.01,,2013-04-09 19:02:00,
2013-04-09 15:12:00,72.0,58.0,29.80,SW,226,3.0,11.0,61,0.00,,,0.01,,2013-04-09 19:12:00,
2013-04-09 15:22:00,72.0,58.0,29.80,SW,226,3.0,11.0,61,0.00,,,0.01,,2013-04-09 19:22:00,
2013-04-09 15:32:00,72.0,58.0,29.82,SW,230,5.0,16.0,61,0.00,,,0.00,,2013-04-09 19:32:00,
2013-04-09 15:42:00,72.0,58.0,29.82,SW,230,5.0,16.0,61,0.00,,,0.00,,2013-04-09 19:42:00,
2013-04-09 15:52:00,71.0,58.0,29.81,WSW,256,1.0,7.0,64,0.00,,,0.00,,2013-04-09 19:52:00,
2013-04-09 16:02:00,70.0,58.0,29.80,West,277,0.0,7.0,65,0.00,,,0.00,,2013-04-09 20:02:00,
2013-04-09 16:12:00,70.0,58.0,29.81,West,274,2.0,7.0,65,0.00,,,0.00,,2013-04-09 20:12:00,
2013-04-09 16:22:00,70.0,58.0,29.81,West,274,2.0,7.0,65,0.00,,,0.00,,2013-04-09 20:22:00,
2013-04-09 16:33:00,70.0,59.0,29.80,West,270,0.0,4.0,67,0.00,,,0.00,,2013-04-09 20:33:00,
2013-04-09 16:42:00,70.0,59.0,29.80,West,270,0.0,4.0,67,0.00,,,0.00,,2013-04-09 20:42:00,
2013-04-09 16:52:00,70.0,59.0,29.79,West,274,0.0,7.0,69,0.00,,,0.00,,2013-04-09 20:52:00,
2013-04-09 17:02:00,72.0,60.0,29.78,SW,234,3.0,8.0,65,0.00,,,0.00,,2013-04-09 21:02:00,
2013-04-09 17:13:00,72.0,60.0,29.78,SW,234,3.0,8.0,65,0.00,,,0.00,,2013-04-09 21:13:00,
2013-04-09 17:22:00,72.0,60.0,29.78,SW,234,3.0,8.0,65,0.00,,,0.00,,2013-04-09 21:22:00,
2013-04-09 17:33:00,75.0,59.0,29.77,SSW,200,1.0,9.0,58,0.00,,,0.00,,2013-04-09 21:33:00,
2013-04-09 17:42:00,75.0,59.0,29.77,SSW,200,1.0,9.0,58,0.00,,,0.00,,2013-04-09 21:42:00,
2013-04-09 17:53:00,75.0,58.0,29.78,West,281,1.0,16.0,55,0.00,,,0.00,,2013-04-09 21:53:00,
2013-04-09 18:03:00,75.0,58.0,29.78,WNW,294,6.0,14.0,55,0.00,,,0.00,,2013-04-09 22:03:00,
2013-04-09 18:12:00,75.0,57.0,29.78,SW,230,5.0,13.0,54,0.00,,,0.00,,2013-04-09 22:12:00,
2013-04-09 18:23:00,75.0,57.0,29.78,SW,230,5.0,13.0,54,0.00,,,0.00,,2013-04-09 22:23:00,
2013-04-09 18:33:00,75.0,57.0,29.79,West,280,1.0,16.0,54,0.00,,,0.00,,2013-04-09 22:33:00,
2013-04-09 18:42:00,75.0,57.0,29.79,West,280,1.0,16.0,54,0.00,,,0.00,,2013-04-09 22:42:00,
2013-04-09 18:53:00,75.0,57.0,29.79,WNW,291,3.0,9.0,54,0.00,,,0.00,,2013-04-09 22:53:00,
2013-04-09 19:03:00,74.0,56.0,29.80,WSW,240,2.0,13.0,53,0.00,,,0.00,,2013-04-09 23:03:00,
2013-04-09 19:12:00,73.0,56.0,29.81,NNW,344,0.0,11.0,56,0.00,,,0.00,,2013-04-09 23:12:00,
2013-04-09 19:22:00,73.0,56.0,29.81,NNW,344,0.0,11.0,56,0.00,,,0.00,,2013-04-09 23:22:00,
2013-04-09 19:32:00,72.0,57.0,29.81,NNW,335,0.0,10.0,59,0.00,,,0.00,,2013-04-09 23:32:00,
2013-04-09 19:42:00,72.0,57.0,29.81,NNW,335,0.0,10.0,59,0.00,,,0.00,,2013-04-09 23:42:00,
2013-04-09 19:53:00,66.0,54.0,29.82,WNW,299,1.0,8.0,66,0.00,,,0.00,,2013-04-09 23:53:00,
2013-04-09 20:03:00,66.0,54.0,29.82,WNW,299,1.0,8.0,66,0.00,,,0.00,,2013-04-10 00:03:00,
2013-04-09 20:12:00,66.0,54.0,29.82,WNW,299,1.0,8.0,66,0.00,,,0.00,,2013-04-10 00:12:00,
2013-04-09 20:22:00,62.0,52.0,29.83,NNW,337,0.0,6.0,71,0.00,,,0.00,,2013-04-10 00:22:00,
2013-04-09 20:32:00,61.0,52.0,29.83,NNW,335,0.0,7.0,73,0.00,,,0.00,,2013-04-10 00:32:00,
2013-04-09 20:42:00,61.0,52.0,29.83,NNW,335,0.0,7.0,73,0.00,,,0.00,,2013-04-10 00:42:00,
2013-04-09 20:52:00,60.0,52.0,29.83,NNW,346,0.0,4.0,75,0.00,,,0.00,,2013-04-10 00:52:00,
2013-04-09 21:02:00,59.0,52.0,29.84,North,349,0.0,1.0,77,0.00,,,0.00,,2013-04-10 01:02:00,
2013-04-09 21:12:00,58.0,51.0,29.84,NNW,336,0.0,4.0,78,0.00,,,0.00,,2013-04-10 01:12:00,
2013-04-09 21:23:00,58.0,51.0,29.84,NNW,336,0.0,4.0,78,0.00,,,0.00,,2013-04-10 01:23:00,
2013-04-09 21:32:00,58.0,52.0,29.85,NNW,343,0.0,4.0,79,0.00,,,0.00,,2013-04-10 01:32:00,
2013-04-09 21:42:00,58.0,52.0,29.85,NNW,343,0.0,4.0,79,0.00,,,0.00,,2013-04-10 01:42:00,
2013-04-09 21:53:00,58.0,52.0,29.86,North,357,0.0,2.0,79,0.00,,,0.00,,2013-04-10 01:53:00,
2013-04-09 22:02:00,57.0,51.0,29.87,North,360,0.0,2.0,80,0.00,,,0.00,,2013-04-10 02:02:00,
2013-04-09 22:12:00,57.0,51.0,29.87,North,360,0.0,2.0,80,0.00,,,0.00,,2013-04-10 02:12:00,
2013-04-09 22:22:00,56.0,50.0,29.87,North,360,0.0,2.0,80,0.00,,,0.00,,2013-04-10 02:22:00,
2013-04-09 22:32:00,56.0,51.0,29.87,North,360,0.0,1.0,82,0.00,,,0.00,,2013-04-10 02:32:00,
2013-04-09 22:42:00,56.0,51.0,29.87,North,360,0.0,1.0,82,0.00,,,0.00,,2013-04-10 02:42:00,
2013-04-09 22:52:00,55.0,50.0,29.87,North,360,0.0,2.0,82,0.00,,,0.00,,2013-04-10 02:52:00,
2013-04-09 23:02:00,55.0,50.0,29.88,North,360,0.0,1.0,83,0.00,,,0.00,,2013-04-10 03:02:00,
2013-04-09 23:12:00,55.0,50.0,29.88,North,360,0.0,1.0,83,0.00,,,0.00,,2013-04-10 03:12:00,
2013-04-09 23:22:00,55.0,50.0,29.88,North,3,0.0,2.0,83,0.00,,,0.00,,2013-04-10 03:22:00,
2013-04-09 23:32:00,54.0,49.0,29.88,North,3,1.0,4.0,84,0.00,,,0.00,,2013-04-10 03:32:00,
2013-04-09 23:43:00,54.0,49.0,29.88,North,3,1.0,4.0,84,0.00,,,0.00,,2013-04-10 03:43:00,
2013-04-09 23:53:00,54.0,49.0,29.88,North,357,0.0,4.0,84,0.00,,,0.00,,2013-04-10 03:53:00,